Regional Weather Roundup
Issued by NWS Huntsville, AL

Home | Current Version | Previous Version | Text Only | Print | Product List | Glossary On
Versions: 1 2 3 4 5 6 7 8 9 10 11 12 13 14 15 16 17 18 19 20 21 22 23 24 25 26 27 28 29 30 31 32 33 34 35 36 37 38 39 40 41 42 43 44 45 46 47 48 49 50
000
ASUS44 KHUN 010810
RWRHUN

WEATHER ROUNDUP FOR THE TENNESSEE VALLEY
NATIONAL WEATHER SERVICE HUNTSVILLE AL
200 AM CST SUN FEB 01 2015

ALZ001>004-010900-
NORTHWEST ALABAMA

CITY           SKY/WX    TMP DP  RH WIND       PRES   REMARKS
COURTLAND HCN    N/A     45 N/A N/A SE5         N/A
RUSSELLVILLE     N/A     50 N/A N/A MISG        N/A
SHOALS AIRPORT CLOUDY    45  26  47 SE7       30.12F
SHOALS TVA RES   N/A     45 N/A N/A MISG        N/A
$$

ALZ005>007-016-010900-
NORTH CENTRAL ALABAMA

CITY           SKY/WX    TMP DP  RH WIND       PRES   REMARKS
CULLMAN AG STN   N/A     45 N/A N/A SE5         N/A
DECATUR AP     CLOUDY    45  26  47 SE7       30.15F
HUNTSVILLE AP  CLOUDY    45  25  45 S3        30.15F
HUN NWS/UAH      N/A     46  19  33 S3          N/A
MERIDIANVILLE  CLOUDY    45  12  26 SE5       30.14F
REDSTONE ARSN  CLOUDY    46  22  38 S8        30.14F
$$

ALZ008>010-010900-
NORTHEAST ALABAMA

CITY           SKY/WX    TMP DP  RH WIND       PRES   REMARKS
ALBERTVILLE    CLOUDY    43  30  61 SE5       30.16S
FORT PAYNE     CLOUDY    45  14  29 CALM      30.18F
SCOTTSBORO AP  CLOUDY    39  28  65 CALM      30.19F
VALLEY HEAD      N/A     43 N/A N/A MISG        N/A
$$

TNZ076-096-097-010900-
SOUTHEASTERN MIDDLE TENNESSEE

CITY           SKY/WX    TMP DP  RH WIND       PRES   REMARKS
TULLAHOMA      CLEAR     43  14  31 S8        30.13F
WINCHESTER     CLEAR     46  18  31 SE14      30.14F
$$

...SURROUNDING SITES...

CITY           SKY/WX    TMP DP  RH WIND       PRES   REMARKS
ATLANTA        CLOUDY    45  20  36 E3        30.23F
ANNISTON       CLOUDY    48  25  40 NE5       30.19F
BIRMINGHAM     CLOUDY    50  23  34 S7        30.18F
CHATTANOOGA    CLOUDY    39  27  62 CALM      30.23S
DALTON         CLOUDY    37  28  70 CALM      30.22F
GADSDEN        CLOUDY   N/A N/A N/A E3        30.19F
GOLDEN TRNGL   MOCLDY    46  27  46 SE10      30.10F
HALEYVILLE       N/A     46  21  37 S10G16    30.14F
JACKSON TN     CLOUDY    51  20  29 S10       30.04F
LEWISBURG      MOCLDY    46  20  36 S3        30.11F
MEMPHIS        CLOUDY    51  24  34 S13       30.00F
MURFREESBORO   FAIR      42  21  43 CALM      30.12F
NASHVILLE      CLOUDY    46  18  32 S3        30.11F
OXFORD MS      FAIR      48  25  40 SE9       30.05F
ROME           CLOUDY    38  28  67 NW3       30.22F
SAVANNAH       MOCLDY    48  19  32 S9        30.07F
TUPELO         MOCLDY    49  25  39 S7        30.08F
TUSCALOOSA     MOCLDY    42  29  59 CALM      30.17S
$$

...GULF COAST WEATHER...

CITY           SKY/WX    TMP DP  RH WIND       PRES   REMARKS
GULFPORT       CLOUDY    52  50  93 E6        30.10F
PASCAGOULA     PTCLDY    44  43  96 CALM      30.14F
MOBILE         PTCLDY    45  41  86 E3        30.15F
GULF SHORES    CLOUDY    57  53  86 SE5       30.15F
PENSACOLA      MOCLDY    61  55  81 S13       30.14F
DESTIN         PTCLDY    52  40  63 E3        30.18S
PANAMA CITY    MOCLDY    52  46  78 E7        30.19S
APPALACHICOLA  MOCLDY    60  52  74 SE12      30.18F
$$




USA.gov is the U.S. government's official web portal to all federal, state and local government web resources and services.